time, Switch, Flow(0), Analog(2)
yyyy/mm/dd HH:MM:SS.fff, True=FILTERED|False=TOTAL, L/min, V
2023/06/09 03:00:01.079, True, 5.054, 0.149386
2023/06/09 03:00:01.584, True, 4.974, 0.150683
2023/06/09 03:00:02.088, True, 4.642, 0.152514
2023/06/09 03:00:02.591, True, 4.643, 0.151293
2023/06/09 03:00:03.088, True, 4.718, 0.151751
2023/06/09 03:00:03.592, True, 4.310, 0.151217
2023/06/09 03:00:04.096, True, 2.653, 0.152056
2023/06/09 03:00:04.591, True, 2.022, 0.152514
2023/06/09 03:00:05.096, True, 1.658, 0.149538
2023/06/09 03:00:05.600, True, 1.326, 0.152514
2023/06/09 03:00:06.095, True, 1.685, 0.149004
2023/06/09 03:00:06.599, True, 1.326, 0.151751
2023/06/09 03:00:07.103, True, 1.327, 0.151827
2023/06/09 03:00:07.600, True, 1.348, 0.152361
2023/06/09 03:00:08.103, True, 1.326, 0.151369
2023/06/09 03:00:08.608, True, 1.658, 0.152667
2023/06/09 03:00:09.104, True, 1.347, 0.149996
2023/06/09 03:00:09.608, True, 1.659, 0.150225
2023/06/09 03:00:10.112, True, 1.325, 0.149462
2023/06/09 03:00:10.615, True, 1.328, 0.149691
2023/06/09 03:00:11.112, True, 1.349, 0.151141
2023/06/09 03:00:11.616, True, 1.655, 0.148623
2023/06/09 03:00:12.120, True, 1.329, 0.150835
2023/06/09 03:00:12.615, True, 1.348, 0.151598
2023/06/09 03:00:13.120, True, 1.656, 0.154803
2023/06/09 03:00:13.624, True, 1.326, 0.149157
2023/06/09 03:00:14.120, True, 1.350, 0.151064
2023/06/09 03:00:14.624, True, 1.658, 0.151369
2023/06/09 03:00:15.128, True, 1.324, 0.150454
2023/06/09 03:00:15.623, True, 1.348, 0.152819
2023/06/09 03:00:16.127, True, 1.660, 0.151675
2023/06/09 03:00:16.631, True, 1.327, 0.151064
2023/06/09 03:00:17.128, True, 1.682, 0.150378
2023/06/09 03:00:17.632, True, 1.326, 0.149691
2023/06/09 03:00:18.136, True, 1.658, 0.152590
2023/06/09 03:00:18.632, True, 1.348, 0.151980
2023/06/09 03:00:19.135, True, 1.657, 0.150988
2023/06/09 03:00:19.639, True, 1.326, 0.152667
2023/06/09 03:00:20.136, True, 1.348, 0.151522
2023/06/09 03:00:20.640, True, 1.658, 0.152361
2023/06/09 03:00:21.144, True, 1.327, 0.151980
2023/06/09 03:00:21.640, True, 1.349, 0.150301
2023/06/09 03:00:22.144, True, 1.658, 0.152361
2023/06/09 03:00:22.648, True, 1.325, 0.151369
2023/06/09 03:00:23.144, True, 1.685, 0.150072
2023/06/09 03:00:23.648, True, 1.326, 0.150835
2023/06/09 03:00:24.151, True, 1.658, 0.150683
2023/06/09 03:00:24.647, True, 1.348, 0.153429
2023/06/09 03:00:25.152, True, 1.658, 0.150607
2023/06/09 03:00:25.656, True, 1.327, 0.152743
2023/06/09 03:00:26.152, True, 1.347, 0.151675
2023/06/09 03:00:26.656, True, 1.658, 0.151522
2023/06/09 03:00:27.160, True, 1.328, 0.150759
2023/06/09 03:00:27.656, True, 1.346, 0.150607
2023/06/09 03:00:28.159, True, 1.326, 0.153887
2023/06/09 03:00:28.664, True, 1.658, 0.149081
2023/06/09 03:00:29.160, True, 1.348, 0.150225
2023/06/09 03:00:29.664, True, 1.326, 0.150759
2023/06/09 03:00:30.168, True, 1.658, 0.153429
2023/06/09 03:00:30.664, True, 1.348, 0.150530
2023/06/09 03:00:31.168, True, 1.658, 0.149691
2023/06/09 03:00:31.672, True, 1.326, 0.150683
2023/06/09 03:00:32.167, True, 1.348, 0.152285
2023/06/09 03:00:32.671, True, 1.658, 0.151598
2023/06/09 03:00:33.176, True, 1.326, 0.151904
2023/06/09 03:00:33.671, True, 1.685, 0.152056
2023/06/09 03:00:34.176, True, 1.326, 0.151827
2023/06/09 03:00:34.680, True, 1.658, 0.150607
2023/06/09 03:00:35.176, True, 1.348, 0.152132
2023/06/09 03:00:35.680, True, 1.658, 0.149386
2023/06/09 03:00:36.184, True, 1.658, 0.151904
2023/06/09 03:00:36.679, True, 1.348, 0.152514
2023/06/09 03:00:37.184, True, 1.326, 0.150454
2023/06/09 03:00:37.688, True, 1.327, 0.151904
2023/06/09 03:00:38.184, True, 1.348, 0.149538
2023/06/09 03:00:38.688, True, 1.658, 0.151522
2023/06/09 03:00:39.192, True, 1.327, 0.151446
2023/06/09 03:00:39.696, True, 1.326, 0.149386
2023/06/09 03:00:40.192, True, 1.685, 0.152590
2023/06/09 03:00:40.696, True, 1.326, 0.150835
2023/06/09 03:00:41.200, True, 1.658, 0.152209
2023/06/09 03:00:41.696, True, 1.348, 0.151675
2023/06/09 03:00:42.200, True, 1.326, 0.150683
2023/06/09 03:00:42.704, True, 1.327, 0.150454
2023/06/09 03:00:43.208, True, 1.660, 0.151064
2023/06/09 03:00:43.704, True, 1.346, 0.151064
2023/06/09 03:00:44.208, True, 1.326, 0.152743
2023/06/09 03:00:44.712, True, 1.326, 0.150683
2023/06/09 03:00:45.207, True, 1.348, 0.150454
2023/06/09 03:00:45.711, True, 1.658, 0.153887
2023/06/09 03:00:46.216, True, 1.327, 0.152590
2023/06/09 03:00:46.712, True, 1.687, 0.154345
2023/06/09 03:00:47.216, True, 1.324, 0.152361
2023/06/09 03:00:47.720, True, 1.327, 0.155108
2023/06/09 03:00:48.216, True, 1.684, 0.154269
2023/06/09 03:00:48.720, True, 1.328, 0.153277
2023/06/09 03:00:49.224, True, 1.325, 0.155795
2023/06/09 03:00:49.720, True, 1.684, 0.155642
2023/06/09 03:00:50.223, True, 1.327, 0.156023
2023/06/09 03:00:50.728, True, 1.326, 0.158389
2023/06/09 03:00:51.224, True, 1.688, 0.158389
2023/06/09 03:00:51.728, True, 1.326, 0.157015
2023/06/09 03:00:52.231, True, 1.324, 0.158083
2023/06/09 03:00:52.736, True, 1.327, 0.161364
2023/06/09 03:00:53.232, True, 1.685, 0.158236
2023/06/09 03:00:53.735, True, 1.328, 0.158618
2023/06/09 03:00:54.240, True, 1.657, 0.158770
2023/06/09 03:00:54.735, True, 1.348, 0.157092
2023/06/09 03:00:55.239, True, 1.657, 0.160296
2023/06/09 03:00:55.743, True, 1.327, 0.158999
2023/06/09 03:00:56.240, True, 1.684, 0.158618
2023/06/09 03:00:56.743, True, 1.326, 0.161059
2023/06/09 03:00:57.248, True, 1.328, 0.158465
2023/06/09 03:00:57.744, True, 1.348, 0.163348
2023/06/09 03:00:58.247, True, 1.656, 0.162356
2023/06/09 03:00:58.752, True, 1.328, 0.162432
2023/06/09 03:00:59.248, True, 1.348, 0.159075
2023/06/09 03:00:59.751, True, 1.656, 0.159533
2023/06/09 03:01:00.255, True, 1.328, 0.162585
2023/06/09 03:01:00.752, True, 1.346, 0.166247
2023/06/09 03:01:01.256, True, 1.659, 0.159533
2023/06/09 03:01:01.760, True, 1.326, 0.160830
2023/06/09 03:01:02.256, True, 1.686, 0.163653
2023/06/09 03:01:02.759, True, 1.325, 0.163043
2023/06/09 03:01:03.264, True, 1.658, 0.161669
2023/06/09 03:01:03.760, True, 1.348, 0.162737
2023/06/09 03:01:04.263, True, 1.326, 0.162432
2023/06/09 03:01:04.768, True, 1.327, 0.162585
2023/06/09 03:01:05.264, True, 1.684, 0.162280
2023/06/09 03:01:05.768, True, 1.327, 0.162280
2023/06/09 03:01:06.272, True, 1.326, 0.162737
2023/06/09 03:01:06.767, True, 1.348, 0.160983
2023/06/09 03:01:07.272, True, 1.327, 0.165255
2023/06/09 03:01:07.776, True, 1.658, 0.164034
2023/06/09 03:01:08.272, True, 1.348, 0.161517
2023/06/09 03:01:08.776, True, 1.326, 0.164111
2023/06/09 03:01:09.279, True, 1.329, 0.163500
2023/06/09 03:01:09.776, True, 1.681, 0.163577
2023/06/09 03:01:10.280, True, 1.327, 0.162890
2023/06/09 03:01:10.784, True, 1.658, 0.164797
2023/06/09 03:01:11.279, True, 1.347, 0.164416
2023/06/09 03:01:11.784, True, 1.326, 0.164797
2023/06/09 03:01:12.288, True, 1.326, 0.163958
2023/06/09 03:01:12.784, True, 1.348, 0.164874
2023/06/09 03:01:13.288, True, 1.658, 0.162814
2023/06/09 03:01:13.792, True, 1.327, 0.165637
2023/06/09 03:01:14.288, True, 1.347, 0.162966
2023/06/09 03:01:14.792, True, 1.326, 0.163195
2023/06/09 03:01:15.295, True, 1.658, 0.162966
2023/06/09 03:01:15.792, True, 1.349, 0.164645
2023/06/09 03:01:16.296, True, 1.657, 0.164950
2023/06/09 03:01:16.791, True, 1.685, 0.164263
2023/06/09 03:01:17.296, True, 1.326, 0.165484
2023/06/09 03:01:17.799, True, 1.326, 0.164569
2023/06/09 03:01:18.296, True, 1.687, 0.165560
2023/06/09 03:01:18.800, True, 1.325, 0.163882
2023/06/09 03:01:19.303, True, 1.326, 0.163195
2023/06/09 03:01:19.800, True, 1.348, 0.162814
2023/06/09 03:01:20.303, True, 1.658, 0.163958
2023/06/09 03:01:20.808, True, 1.658, 0.164263
2023/06/09 03:01:21.303, True, 1.348, 0.163653
2023/06/09 03:01:21.808, True, 1.326, 0.164416
2023/06/09 03:01:22.312, True, 1.658, 0.164340
2023/06/09 03:01:22.808, True, 1.348, 0.162432
2023/06/09 03:01:23.312, True, 1.659, 0.166552
2023/06/09 03:01:23.815, True, 1.326, 0.164797
2023/06/09 03:01:24.320, True, 1.327, 0.162890
2023/06/09 03:01:24.815, True, 1.685, 0.164950
2023/06/09 03:01:25.319, True, 1.327, 0.163424
2023/06/09 03:01:25.823, True, 1.657, 0.163272
2023/06/09 03:01:26.327, True, 1.326, 0.165484
2023/06/09 03:01:26.823, True, 1.348, 0.164874
2023/06/09 03:01:27.328, True, 1.658, 0.164111
2023/06/09 03:01:27.831, True, 1.327, 0.164721
2023/06/09 03:01:28.327, True, 1.348, 0.163806
2023/06/09 03:01:28.832, True, 1.657, 0.164645
2023/06/09 03:01:29.335, True, 1.326, 0.164950
2023/06/09 03:01:29.831, True, 1.685, 0.166323
2023/06/09 03:01:30.335, True, 1.327, 0.165332
2023/06/09 03:01:30.839, True, 1.660, 0.164111
2023/06/09 03:01:31.335, True, 1.346, 0.162890
2023/06/09 03:01:31.839, True, 1.660, 0.166018
2023/06/09 03:01:32.344, True, 1.324, 0.162280
2023/06/09 03:01:32.839, True, 1.349, 0.164187
2023/06/09 03:01:33.343, True, 1.325, 0.162966
2023/06/09 03:01:33.847, True, 1.326, 0.163195
2023/06/09 03:01:34.343, True, 1.685, 0.164187
2023/06/09 03:01:34.847, True, 1.326, 0.164416
2023/06/09 03:01:35.343, True, 1.685, 0.165255
2023/06/09 03:01:35.846, True, 1.326, 0.164645
2023/06/09 03:01:36.351, True, 1.328, 0.163577
2023/06/09 03:01:36.856, True, 1.655, 0.163043
2023/06/09 03:01:37.351, True, 1.348, 0.164111
2023/06/09 03:01:37.855, True, 1.329, 0.162509
2023/06/09 03:01:38.359, True, 1.656, 0.161212
2023/06/09 03:01:38.855, True, 1.347, 0.164187
2023/06/09 03:01:39.360, True, 1.329, 0.163424
2023/06/09 03:01:39.863, True, 1.326, 0.164111
2023/06/09 03:01:40.359, True, 1.682, 0.163729
2023/06/09 03:01:40.863, True, 1.329, 0.162661
2023/06/09 03:01:41.360, True, 1.348, 0.163577
2023/06/09 03:01:41.862, True, 1.326, 0.161975
2023/06/09 03:01:42.368, True, 1.655, 0.165484
2023/06/09 03:01:42.863, True, 1.351, 0.165103
2023/06/09 03:01:43.368, True, 1.658, 0.162432
2023/06/09 03:01:43.871, True, 1.324, 0.162127
2023/06/09 03:01:44.375, True, 1.326, 0.163577
2023/06/09 03:01:44.871, True, 1.686, 0.164034
2023/06/09 03:01:45.376, True, 1.326, 0.162966
2023/06/09 03:01:45.871, True, 1.688, 0.164111
2023/06/09 03:01:46.375, True, 1.324, 0.164034
2023/06/09 03:01:46.880, True, 1.326, 0.163882
2023/06/09 03:01:47.383, True, 1.658, 0.164492
2023/06/09 03:01:47.879, True, 1.349, 0.161898
2023/06/09 03:01:48.383, True, 1.656, 0.165103
2023/06/09 03:01:48.887, True, 1.660, 0.164797
2023/06/09 03:01:49.383, True, 1.346, 0.160830
2023/06/09 03:01:49.887, True, 1.326, 0.161669
2023/06/09 03:01:50.391, True, 1.658, 0.163653
2023/06/09 03:01:50.887, True, 1.350, 0.162585
2023/06/09 03:01:51.391, True, 1.324, 0.163577
2023/06/09 03:01:51.895, True, 1.327, 0.162585
2023/06/09 03:01:52.392, True, 1.684, 0.162280
2023/06/09 03:01:52.895, True, 1.329, 0.163577
2023/06/09 03:01:53.399, True, 1.324, 0.159991
2023/06/09 03:01:53.895, True, 1.685, 0.160754
2023/06/09 03:01:54.399, True, 1.327, 0.163348
2023/06/09 03:01:54.903, True, 1.328, 0.163577
2023/06/09 03:01:55.399, True, 1.682, 0.162051
2023/06/09 03:01:55.903, True, 1.326, 0.162890
2023/06/09 03:01:56.399, True, 1.685, 0.164111
2023/06/09 03:01:56.903, True, 1.326, 0.161059
2023/06/09 03:01:57.407, True, 1.658, 0.162890
2023/06/09 03:01:57.903, True, 1.348, 0.161440
2023/06/09 03:01:58.407, True, 1.658, 0.166934
2023/06/09 03:01:58.911, True, 1.327, 0.163195
2023/06/09 03:01:59.407, True, 1.348, 0.164034
2023/06/09 03:01:59.911, True, 1.660, 0.163806
2023/06/09 03:02:00.415, True, 1.324, 0.162814
2023/06/09 03:02:00.919, True, 1.326, 0.161975
2023/06/09 03:02:01.415, True, 1.348, 0.162585
2023/06/09 03:02:01.919, True, 1.658, 0.162966
2023/06/09 03:02:02.415, True, 1.350, 0.162051
2023/06/09 03:02:02.919, True, 1.324, 0.160601
2023/06/09 03:02:03.423, True, 1.658, 0.162203
2023/06/09 03:02:03.919, True, 1.348, 0.161288
2023/06/09 03:02:04.423, True, 1.327, 0.162966
2023/06/09 03:02:04.928, True, 1.326, 0.160601
2023/06/09 03:02:05.423, True, 1.685, 0.162890
2023/06/09 03:02:05.928, True, 1.327, 0.162509
2023/06/09 03:02:06.431, True, 1.326, 0.163348
2023/06/09 03:02:06.927, True, 1.684, 0.161822
2023/06/09 03:02:07.431, True, 1.327, 0.160906
2023/06/09 03:02:07.936, True, 1.326, 0.162966
2023/06/09 03:02:08.431, True, 1.686, 0.162509
2023/06/09 03:02:08.936, True, 1.326, 0.162127
2023/06/09 03:02:09.439, True, 1.327, 0.162509
2023/06/09 03:02:09.935, True, 1.684, 0.161746
2023/06/09 03:02:10.439, True, 1.327, 0.164111
2023/06/09 03:02:10.943, True, 1.326, 0.161746
2023/06/09 03:02:11.439, True, 1.685, 0.160754
2023/06/09 03:02:11.943, True, 1.326, 0.161135
2023/06/09 03:02:12.447, True, 1.659, 0.161440
2023/06/09 03:02:12.951, True, 1.326, 0.161288
2023/06/09 03:02:13.447, True, 1.348, 0.160830
2023/06/09 03:02:13.951, True, 1.660, 0.161746
2023/06/09 03:02:14.455, True, 1.327, 0.162585
2023/06/09 03:02:14.951, True, 1.346, 0.162814
2023/06/09 03:02:15.455, True, 1.326, 0.163195
2023/06/09 03:02:15.959, True, 1.658, 0.162203
2023/06/09 03:02:16.455, True, 1.348, 0.162661
2023/06/09 03:02:16.959, True, 1.326, 0.160983
2023/06/09 03:02:17.463, True, 1.660, 0.162585
2023/06/09 03:02:17.967, True, 1.325, 0.161746
2023/06/09 03:02:18.463, True, 1.349, 0.162280
2023/06/09 03:02:18.967, True, 1.325, 0.160220
2023/06/09 03:02:19.471, True, 1.658, 0.161746
2023/06/09 03:02:19.967, True, 1.348, 0.160220
2023/06/09 03:02:20.471, True, 1.326, 0.161822
2023/06/09 03:02:20.967, True, 1.348, 0.160296
2023/06/09 03:02:21.471, True, 1.326, 0.162356
2023/06/09 03:02:21.975, True, 1.658, 0.162051
2023/06/09 03:02:22.471, True, 1.348, 0.162280
2023/06/09 03:02:22.975, True, 1.658, 0.158083
2023/06/09 03:02:23.479, True, 1.327, 0.161593
2023/06/09 03:02:23.975, True, 1.348, 0.159838
2023/06/09 03:02:24.479, True, 1.658, 0.162127
2023/06/09 03:02:24.975, True, 1.348, 0.160754
2023/06/09 03:02:25.479, True, 1.326, 0.160525
2023/06/09 03:02:25.983, True, 1.658, 0.161898
2023/06/09 03:02:26.487, True, 1.326, 0.159991
2023/06/09 03:02:26.983, True, 1.684, 0.161975
2023/06/09 03:02:27.487, True, 1.658, 0.160525
2023/06/09 03:02:27.983, True, 1.348, 0.161593
2023/06/09 03:02:28.487, True, 1.658, 0.161746
2023/06/09 03:02:28.991, True, 1.326, 0.162432
2023/06/09 03:02:29.487, True, 1.348, 0.160296
2023/06/09 03:02:29.991, True, 1.658, 0.162890
2023/06/09 03:02:30.495, True, 1.326, 0.161517
2023/06/09 03:02:30.999, True, 1.326, 0.160220
2023/06/09 03:02:31.495, True, 1.685, 0.162203
2023/06/09 03:02:31.999, True, 1.328, 0.161517
2023/06/09 03:02:32.495, True, 1.683, 0.163272
2023/06/09 03:02:32.999, True, 1.326, 0.160525
2023/06/09 03:02:33.503, True, 1.658, 0.162737
2023/06/09 03:02:34.007, True, 1.327, 0.158999
2023/06/09 03:02:34.503, True, 1.348, 0.161135
2023/06/09 03:02:35.007, True, 1.658, 0.160296
2023/06/09 03:02:35.511, True, 1.326, 0.159075
2023/06/09 03:02:36.007, True, 1.685, 0.161212
2023/06/09 03:02:36.511, True, 1.326, 0.159457
2023/06/09 03:02:37.015, True, 1.658, 0.159609
2023/06/09 03:02:37.511, True, 1.349, 0.161212
2023/06/09 03:02:38.015, True, 1.325, 0.160067
2023/06/09 03:02:38.519, True, 1.658, 0.161135
2023/06/09 03:02:39.015, True, 1.348, 0.160372
2023/06/09 03:02:39.519, True, 1.327, 0.161822
2023/06/09 03:02:40.023, True, 1.326, 0.161593
2023/06/09 03:02:40.527, True, 1.658, 0.160525
2023/06/09 03:02:41.023, True, 1.348, 0.163119
2023/06/09 03:02:41.527, True, 1.658, 0.163043
2023/06/09 03:02:42.023, True, 1.350, 0.159152
2023/06/09 03:02:42.527, True, 1.325, 0.161593
2023/06/09 03:02:43.031, True, 1.658, 0.160449
2023/06/09 03:02:43.535, True, 1.659, 0.160678
2023/06/09 03:02:44.031, True, 1.347, 0.160220
2023/06/09 03:02:44.535, True, 1.658, 0.160220
2023/06/09 03:02:45.039, True, 1.327, 0.160983
2023/06/09 03:02:45.535, True, 1.348, 0.159533
2023/06/09 03:02:46.039, True, 1.326, 0.161669
2023/06/09 03:02:46.543, True, 1.658, 0.163043
2023/06/09 03:02:47.039, True, 1.348, 0.159228
2023/06/09 03:02:47.543, True, 1.329, 0.161593
2023/06/09 03:02:48.047, True, 1.655, 0.158541
2023/06/09 03:02:48.543, True, 1.685, 0.159686
2023/06/09 03:02:49.047, True, 1.326, 0.159762
2023/06/09 03:02:49.543, True, 1.348, 0.160220
2023/06/09 03:02:50.047, True, 1.326, 0.159228
2023/06/09 03:02:50.551, True, 1.658, 0.160067
2023/06/09 03:02:51.047, True, 1.348, 0.160220
2023/06/09 03:02:51.551, True, 1.326, 0.161440
2023/06/09 03:02:52.055, True, 1.658, 0.160983
2023/06/09 03:02:52.559, True, 1.327, 0.159915
2023/06/09 03:02:53.055, True, 1.684, 0.158541
2023/06/09 03:02:53.559, True, 1.327, 0.157702
2023/06/09 03:02:54.063, True, 1.326, 0.161669
2023/06/09 03:02:54.559, True, 1.684, 0.159075
2023/06/09 03:02:55.063, True, 1.326, 0.158846
2023/06/09 03:02:55.567, True, 1.661, 0.160143
2023/06/09 03:02:56.071, True, 1.324, 0.159609
2023/06/09 03:02:56.567, True, 1.349, 0.160296
2023/06/09 03:02:57.071, True, 1.328, 0.159152
2023/06/09 03:02:57.575, True, 1.655, 0.161288
2023/06/09 03:02:58.071, True, 1.348, 0.159152
2023/06/09 03:02:58.575, True, 1.661, 0.159991
2023/06/09 03:02:59.079, True, 1.324, 0.160296
2023/06/09 03:02:59.575, True, 1.348, 0.158541
2023/06/09 03:03:00.079, True, 1.327, 0.158465
2023/06/09 03:03:00.583, True, 1.657, 0.159686
2023/06/09 03:03:01.079, True, 1.348, 0.159762
2023/06/09 03:03:01.583, True, 1.658, 0.160143
2023/06/09 03:03:02.079, True, 1.348, 0.160830
2023/06/09 03:03:02.583, True, 1.326, 0.159838
2023/06/09 03:03:03.087, True, 1.658, 0.160678
2023/06/09 03:03:03.583, True, 1.348, 0.161669
2023/06/09 03:03:04.087, True, 1.326, 0.159991
2023/06/09 03:03:04.591, True, 1.326, 0.159152
2023/06/09 03:03:05.087, True, 1.685, 0.158846
2023/06/09 03:03:05.591, True, 1.327, 0.158770
2023/06/09 03:03:06.087, True, 1.685, 0.161669
2023/06/09 03:03:06.591, True, 1.326, 0.159838
2023/06/09 03:03:07.095, True, 1.327, 0.160067
2023/06/09 03:03:07.599, True, 1.326, 0.156710
2023/06/09 03:03:08.095, True, 1.684, 0.158083
2023/06/09 03:03:08.599, True, 1.327, 0.160678
2023/06/09 03:03:09.103, True, 1.326, 0.159838
2023/06/09 03:03:09.599, True, 1.685, 0.159228
2023/06/09 03:03:10.103, True, 1.327, 0.158770
2023/06/09 03:03:10.607, True, 1.660, 0.159457
2023/06/09 03:03:11.103, True, 1.346, 0.157931
2023/06/09 03:03:11.607, True, 1.325, 0.158923
2023/06/09 03:03:12.111, True, 1.328, 0.158389
2023/06/09 03:03:12.607, True, 1.685, 0.160525
2023/06/09 03:03:13.111, True, 1.325, 0.159762
2023/06/09 03:03:13.615, True, 1.326, 0.159457
2023/06/09 03:03:14.119, True, 1.660, 0.159304
2023/06/09 03:03:14.615, True, 1.348, 0.160143
2023/06/09 03:03:15.119, True, 1.325, 0.160220
2023/06/09 03:03:15.623, True, 1.660, 0.156558
2023/06/09 03:03:16.119, True, 1.347, 0.158465
2023/06/09 03:03:16.623, True, 1.327, 0.159533
2023/06/09 03:03:17.127, True, 1.325, 0.159380
2023/06/09 03:03:17.623, True, 1.686, 0.158389
2023/06/09 03:03:18.126, True, 1.325, 0.158465
2023/06/09 03:03:18.631, True, 1.328, 0.158083
2023/06/09 03:03:19.127, True, 1.348, 0.159686
2023/06/09 03:03:19.631, True, 1.656, 0.155718
2023/06/09 03:03:20.135, True, 1.325, 0.159228
2023/06/09 03:03:20.631, True, 1.348, 0.159457
2023/06/09 03:03:21.135, True, 1.658, 0.158541
2023/06/09 03:03:21.639, True, 1.327, 0.156710
2023/06/09 03:03:22.143, True, 1.658, 0.159380
2023/06/09 03:03:22.639, True, 1.350, 0.157397
2023/06/09 03:03:23.143, True, 1.324, 0.156634
2023/06/09 03:03:23.638, True, 1.348, 0.158007
2023/06/09 03:03:24.143, True, 1.658, 0.158465
2023/06/09 03:03:24.647, True, 1.327, 0.158236
2023/06/09 03:03:25.143, True, 1.348, 0.159075
2023/06/09 03:03:25.647, True, 1.658, 0.157549
2023/06/09 03:03:26.151, True, 1.658, 0.158160
2023/06/09 03:03:26.655, True, 1.326, 0.156786
2023/06/09 03:03:27.151, True, 1.686, 0.158618
2023/06/09 03:03:27.655, True, 1.326, 0.157015
2023/06/09 03:03:28.151, True, 1.350, 0.159228
2023/06/09 03:03:28.655, True, 1.655, 0.157931
2023/06/09 03:03:29.159, True, 1.326, 0.157168
2023/06/09 03:03:29.655, True, 1.348, 0.157702
2023/06/09 03:03:30.159, True, 1.659, 0.156481
2023/06/09 03:03:30.663, True, 1.326, 0.158465
2023/06/09 03:03:31.167, True, 1.658, 0.158236
2023/06/09 03:03:31.663, True, 1.348, 0.159915
2023/06/09 03:03:32.167, True, 1.658, 0.159228
2023/06/09 03:03:32.671, True, 1.326, 0.161212
2023/06/09 03:03:33.167, True, 1.685, 0.156100
2023/06/09 03:03:33.671, True, 1.326, 0.157397
2023/06/09 03:03:34.167, True, 1.348, 0.157855
2023/06/09 03:03:34.671, True, 1.658, 0.156786
2023/06/09 03:03:35.175, True, 1.326, 0.155261
2023/06/09 03:03:35.671, True, 1.684, 0.156786
2023/06/09 03:03:36.175, True, 1.327, 0.159457
2023/06/09 03:03:36.679, True, 1.326, 0.158541
2023/06/09 03:03:37.175, True, 1.348, 0.158312
2023/06/09 03:03:37.679, True, 1.658, 0.157702
2023/06/09 03:03:38.183, True, 1.327, 0.157931
2023/06/09 03:03:38.679, True, 1.348, 0.159457
2023/06/09 03:03:39.183, True, 1.658, 0.157092
2023/06/09 03:03:39.687, True, 1.326, 0.158312
2023/06/09 03:03:40.183, True, 1.349, 0.156634
2023/06/09 03:03:40.687, True, 1.658, 0.159152
2023/06/09 03:03:41.191, True, 1.327, 0.157397
2023/06/09 03:03:41.687, True, 1.682, 0.156100
2023/06/09 03:03:42.191, True, 1.326, 0.158923
2023/06/09 03:03:42.695, True, 1.658, 0.156786
2023/06/09 03:03:43.199, True, 1.327, 0.156939
2023/06/09 03:03:43.695, True, 1.347, 0.156023
2023/06/09 03:03:44.199, True, 1.658, 0.157702
2023/06/09 03:03:44.703, True, 1.326, 0.156405
2023/06/09 03:03:45.199, True, 1.348, 0.157855
2023/06/09 03:03:45.703, True, 1.326, 0.156939
2023/06/09 03:03:46.207, True, 1.658, 0.158999
2023/06/09 03:03:46.703, True, 1.348, 0.159457
2023/06/09 03:03:47.207, True, 1.326, 0.157244
2023/06/09 03:03:47.703, True, 1.685, 0.158618
2023/06/09 03:03:48.207, True, 1.660, 0.156710
2023/06/09 03:03:48.711, True, 1.324, 0.156329
2023/06/09 03:03:49.207, True, 1.348, 0.157549
2023/06/09 03:03:49.711, True, 1.326, 0.157702
2023/06/09 03:03:50.215, True, 1.327, 0.156786
2023/06/09 03:03:50.711, True, 1.348, 0.157931
2023/06/09 03:03:51.215, True, 1.328, 0.159762
2023/06/09 03:03:51.719, True, 1.657, 0.158083
2023/06/09 03:03:52.215, True, 1.348, 0.155718
2023/06/09 03:03:52.719, True, 1.326, 0.157397
2023/06/09 03:03:53.222, True, 1.658, 0.158083
2023/06/09 03:03:53.719, True, 1.348, 0.156710
2023/06/09 03:03:54.223, True, 1.658, 0.159304
2023/06/09 03:03:54.719, True, 1.348, 0.158007
2023/06/09 03:03:55.222, True, 1.328, 0.158694
2023/06/09 03:03:55.727, True, 1.324, 0.156939
2023/06/09 03:03:56.223, True, 1.685, 0.161898
2023/06/09 03:03:56.727, True, 1.327, 0.157321
2023/06/09 03:03:57.231, True, 1.326, 0.157244
2023/06/09 03:03:57.735, True, 1.658, 0.159228
2023/06/09 03:03:58.231, True, 1.348, 0.156405
2023/06/09 03:03:58.735, True, 1.658, 0.156329
2023/06/09 03:03:59.239, True, 1.326, 0.157244
2023/06/09 03:03:59.743, True, 1.326, 0.156405
2023/06/09 03:04:00.239, True, 1.348, 0.159457
2023/06/09 03:04:00.743, True, 1.658, 0.157015
2023/06/09 03:04:01.247, True, 1.327, 0.158083
2023/06/09 03:04:01.743, True, 1.348, 0.156176
2023/06/09 03:04:02.247, True, 1.327, 0.156863
2023/06/09 03:04:02.751, True, 1.656, 0.158465
2023/06/09 03:04:03.247, True, 1.348, 0.157015
2023/06/09 03:04:03.751, True, 1.327, 0.154421
2023/06/09 03:04:04.255, True, 1.658, 0.155795
2023/06/09 03:04:04.751, True, 1.347, 0.157092
2023/06/09 03:04:05.255, True, 1.326, 0.156100
2023/06/09 03:04:05.759, True, 1.326, 0.156252
2023/06/09 03:04:06.263, True, 1.658, 0.157549
2023/06/09 03:04:06.759, True, 1.350, 0.155795
2023/06/09 03:04:07.263, True, 1.324, 0.157244
2023/06/09 03:04:07.767, True, 1.326, 0.156863
2023/06/09 03:04:08.263, True, 1.349, 0.158160
2023/06/09 03:04:08.767, True, 1.326, 0.155413
2023/06/09 03:04:09.271, True, 1.658, 0.157168
2023/06/09 03:04:09.767, True, 1.348, 0.155947
2023/06/09 03:04:10.271, True, 1.326, 0.157092